Lapse_Rate
2.2 1.9 2.0 1.9 2.1 2.4 2.6 2.6 2.5 2.4 2.5 2.4 2.4 2.5 2.5 2.3 2.4 2.5 2.8 2.6 2.9 3.6
2.4 2.4 2.3 2.1 2.1 2.3 2.3 3.0 2.6 2.7 2.5 2.3 2.3 2.5 2.6 2.1 2.1 2.3 2.4 2.8 3.3 3.1
2.0 2.4 2.2 1.8 2.0 2.2 2.3 2.5 2.6 2.6 2.4 2.5 2.7 3.1 2.9 2.6 2.9 2.6 3.0 3.7 2.7 2.7
1.5 1.8 1.5 1.7 2.0 2.4 2.7 2.6 2.7 3.0 3.3 3.5 3.6 3.8 3.1 2.9 2.9 2.9 3.0 3.2 3.3 3.3
1.5 1.5 1.4 2.2 2.2 2.4 2.7 3.3 3.5 3.9 4.0 4.3 4.4 4.2 3.5 3.4 4.3 3.7 3.7 3.7 3.7 3.4
1.5 1.6 2.2 2.0 2.2 2.1 2.8 3.7 4.1 5.0 4.7 4.8 4.9 4.4 4.1 4.1 4.2 4.4 4.3 4.3 4.3 4.1
1.4 1.4 1.6 1.8 1.8 2.8 2.9 3.3 4.0 4.4 4.6 4.9 4.7 5.1 4.8 5.3 4.7 4.6 5.1 5.2 5.2 4.8
3.5 2.2 1.1 2.5 2.1 2.8 3.4 3.2 3.7 4.3 4.4 4.3 4.7 5.3 4.8 5.3 5.6 5.6 5.3 5.5 5.9 6.0
4.7 4.2 3.3 2.8 1.6 1.3 2.5 3.0 1.6 2.8 3.0 3.4 5.0 6.5 7.9 9.2 7.1 6.6 6.9 6.8 7.1 6.7
5.0 4.7 4.7 4.3 3.1 1.9 1.4 1.2 2.4 1.7 2.4 2.2 3.7 6.5 7.8 9.5 8.3 7.4 7.2 7.0 7.4 7.6
5.1 5.1 5.1 5.0 4.7 3.3 1.4 0.7 1.1 2.0 2.0 2.0 4.0 7.0 8.9 9.5 8.3 7.5 7.3 7.5 7.3 7.1
4.5 4.3 5.0 4.4 3.8 3.0 1.1 1.4 0.1 2.2 2.1 0.9 2.5 6.6 8.2 9.2 7.6 7.6 7.4 7.2 7.1 6.6
4.1 3.4 3.0 3.3 2.9 2.8 1.8 2.8 3.9 3.8 3.0 4.1 3.9 6.5 7.9 9.0 7.2 6.7 7.6 7.4 7.4 8.4
3.9 3.0 2.9 2.1 1.9 1.2 2.3 3.4 2.0 3.3 3.1 2.1 2.9 3.2 7.7 9.1 8.4 7.6 7.3 7.4 7.4 7.5
Wind_Speed
6 4 3 4 3 2 2 1 1 0 1 2 3 5 5 2 2 4 3 4 3 3
5 5 4 4 3 2 3 3 3 2 2 2 4 5 6 2 3 4 3 4 4 4
5 4 4 4 4 3 2 2 2 2 3 3 4 6 6 3 5 4 3 4 5 5
5 5 5 4 3 3 2 2 2 3 3 4 4 7 5 5 5 6 5 5 5 7
5 5 4 4 3 2 2 4 4 5 4 4 4 6 5 6 6 5 6 6 6 8
5 4 4 4 2 2 2 4 6 6 5 5 6 6 6 7 7 7 7 7 7 9
5 5 4 2 2 2 3 4 5 5 5 5 5 6 7 7 7 8 8 9 9 9
5 4 3 3 3 3 3 4 5 5 6 6 6 6 7 9 9 8 8 9 9 10
5 5 4 3 3 2 3 4 3 5 5 6 6 13 15 13 5 7 10 11 11 10
4 4 4 4 3 3 4 3 5 6 5 6 6 14 16 17 7 7 7 8 9 9
4 4 3 3 4 4 3 5 5 6 6 5 6 14 15 17 8 6 8 8 8 9
4 2 3 4 5 4 4 4 4 5 5 5 6 14 15 14 6 7 8 8 8 9
2 2 3 4 5 4 3 4 4 5 5 10 6 14 17 14 5 6 7 8 9 17
2 3 5 4 3 3 4 4 4 5 5 6 7 8 16 15 7 6 7 7 7 7
Wind_Direction
134 132 133 148 147 144 142 140 154 19 140 349 358 338 329 316 295 264 271 274 243 253
122 133 140 135 129 138 143 181 214 198 295 326 326 315 302 293 282 279 270 270 262 245
142 133 135 140 162 166 166 199 226 271 290 293 285 278 269 267 261 256 250 259 247 256
150 154 154 164 166 170 197 233 237 244 245 240 243 249 244 248 252 251 251 247 251 259
148 147 162 178 172 173 241 263 255 251 244 241 239 243 240 245 262 248 254 253 248 257
155 168 187 198 197 176 229 253 262 256 247 248 248 242 236 237 242 242 242 245 243 254
180 190 199 187 187 202 208 231 244 248 252 255 254 263 256 254 242 237 247 245 241 244
178 175 173 200 201 209 219 230 239 251 255 255 261 261 241 240 242 244 246 249 249 251
162 171 189 201 211 194 225 246 239 254 250 259 265 271 277 283 249 237 249 260 262 252
167 183 197 199 173 222 242 236 247 253 248 249 249 273 278 279 280 257 250 250 258 262
180 191 188 214 239 236 222 233 243 250 250 250 267 281 286 288 286 276 267 261 256 255
160 164 224 243 252 247 227 246 244 251 259 252 265 285 284 282 275 268 265 262 257 251
156 189 239 247 250 242 221 245 258 263 247 265 267 287 289 287 259 258 269 268 259 269
201 236 248 249 225 240 257 260 260 275 271 262 263 271 290 287 277 269 264 261 264 258